Weather in Calama

Chile     22°26′32″S   68°55′06″W
temp.,
°C
wind,
m/s
gust,
m/s
humid.,
%
clouds,
%
prec.,
mm/h
press.,
hPa
HPBL,
m
7 march, sun
sun700:00+12ene22680 0.0 101623
03:00+11e22740 0.0 101623
06:00+9e12820 0.0 101523
09:00+15e22530 0.0 1016175
12:00+22wsw54320 0.0 10141102
15:00+24w87230 0.0 10111409
18:00+24wsw1010230 0.0 10101768
21:00+13sw12450 0.0 101523
8 march, mon
mon800:00+11ene11560 0.0 101723
03:00+11e23540 0.0 101623
06:00+9e12660 0.0 101623
09:00+16ne11400 0.0 1017119
12:00+22w43240 0.0 10141242
15:00+24w87200 0.0 10101324
18:00+24w910190 0.0 10101676
21:00+14wsw34430 0.0 101429
9 march, tue
tue900:00+13ene33460 0.0 101623
03:00+12e34480 0.0 101524
06:00+10e22570 0.0 101523
09:00+16ene22360 0.0 1016141
12:00+21w64280 0.0 1014842
15:00+24w88220 0.0 10111155
18:00+22wnw910230 0.0 10111552
21:00+14sw45560 0.0 101771
10 march, wed
wed1000:00+10e11680 0.0 101923
03:00+9ene11730 0.0 101823
06:00+7n01830 0.0 101722
09:00+13nne11530 0.0 1018141
12:00+20w54310 0.0 1015998
15:00+22w88230 0.0 10121168
18:00+21wnw89220 0.0 10121474
21:00+12wsw34500 0.0 101629
11 march, thu
thu1100:00+9e11640 0.0 101722
03:00+9e23630 0.0 101622
06:00+9ene23670 0.0 101522
09:00+13e12470 0.0 1016149
12:00+19w64320 0.0 10131058
15:00+22w87260 0.0 10101314
18:00+21w88240 0.0 10101556
21:00+13wsw33510 0.0 101427